Regional Weather Roundup
Issued by NWS

Home | Current Version | Previous Version | Text Only | Print | Product List | Glossary Off
Versions: 1 2 3 4 5 6 7 8 9 10 11 12 13 14 15 16 17 18 19 20 21 22 23 24 25 26 27 28 29 30 31 32 33 34 35 36 37 38 39 40 41 42 43 44 45 46 47 48 49 50

000
ASUS43 KIND 221259
RWRIN

WEATHER ROUNDUP FOR INDIANA
NATIONAL WEATHER SERVICE INDIANAPOLIS IN
900 AM EDT WED MAR 22 2017

NOTE: "FAIR" INDICATES FEW OR NO CLOUDS BELOW 12,000 FEET WITH NO
SIGNIFICANT WEATHER AND/OR OBSTRUCTIONS TO VISIBILITY.

* - STATION DOES NOT REPORT WEATHER SUCH AS PRECIPITATION OR FOG.

+ - STATION NOT QUALITY CONTROLLED BY THE NATIONAL WEATHER SERVICE.
    USE DATA WITH CAUTION...ESPECIALLY DEWPOINT AND RELATIVE
    HUMIDITY OBSERVATIONS.

INZ001>003-010>013-019-020-221400-
NORTHWEST INDIANA

CITY           SKY/WX    TMP DP  RH WIND       PRES   REMARKS
GARY /AIRPORT/ PTSUNNY   28  16  59 NE15G26   30.55R WCI  17
KNOX *+        SUNNY     23  -6  28 NE14      30.53R WCI  11
MONTICELLO +   MOSUNNY   24  11  56 NE12      30.50R WCI  13

$$

LMZ046-743>745-221400-
SOUTHERN LAKE MICHIGAN

STATION/POSITION TIME  TEMP    WIND        PRES    WAVE
                       AIR SEA DIR/SP/G            HT
                 (UTC) (F)     (DEG/KT/KT) (MB)    (FT)
BURNS HARBOR     1240   27      80/ 13/ 24 1034.2R
MICHIGAN CITY    1230   23      70/ 14/ 16   N/A

$$

INZ004-005-014>016-021>024-221400-
NORTH CENTRAL INDIANA

CITY           SKY/WX    TMP DP  RH WIND       PRES   REMARKS
ELKHART        SUNNY     21  10  63 N8        30.53R WCI  12
GOSHEN         SUNNY     22   9  57 NE14G21   30.52R WCI   9
SOUTH BEND     SUNNY     22  10  60 NE6       30.54R WCI  14

$$

INZ006>009-017-018-025>027-221400-
NORTHEAST INDIANA

CITY           SKY/WX    TMP DP  RH WIND       PRES   REMARKS
ANGOLA *+      SUNNY     19   7  58 NE17      30.50R WCI   4
FORT WAYNE     SUNNY     24  11  57 NE15      30.51R WCI  11
KENDALLVILLE + MOSUNNY   21  10  61 NE13      30.50R WCI   9

$$

INZ028-029-035-036-043>045-051>053-221400-
WEST CENTRAL INDIANA

CITY           SKY/WX    TMP DP  RH WIND       PRES   REMARKS
CRAWFORDSVL +  SUNNY     25  13  60 NE15G22   30.47R WCI  13
GREENCASTLE +  SUNNY     28  16  59 NE14      30.46R WCI  17
LAFAYETTE      SUNNY     25  12  58 NE13      30.50R WCI  14
TERRE HAUTE    SUNNY     30  16  56 NE15      30.47R WCI  19

$$

INZ030>032-037>040-046>048-054>057-064-065-221400-
CENTRAL INDIANA

CITY           SKY/WX    TMP DP  RH WIND       PRES   REMARKS
ANDERSON       SUNNY     25  12  58 NE17G23   30.47  WCI  11
COLUMBUS       SUNNY     28  19  69 NE16G23   30.46R WCI  17
GREENWOOD *+   SUNNY     29  16  58 NE13      30.45R WCI  19
INDIANAPOLIS   MOSUNNY   28  12  51 NE15      30.45R WCI  16
-EAGLE CREEK   SUNNY     28  13  53 NE12      30.46R WCI  18
KOKOMO +       SUNNY     25  13  60 NE15G23   30.49R WCI  13
SHELBYVILLE    SUNNY     30  15  53 NE13      30.45R WCI  20

$$

INZ033-034-041-042-049-050-058-059-221400-
EAST CENTRAL INDIANA

CITY           SKY/WX    TMP DP  RH WIND       PRES   REMARKS
MUNCIE         PTSUNNY   25  14  63 NE15      30.47R WCI  13
RICHMOND +     SUNNY     23  14  68 NE12G22   30.44R WCI  12

$$

INZ060-061-067>069-081>083-085>088-221400-
SOUTHWEST INDIANA

CITY           SKY/WX    TMP DP  RH WIND       PRES   REMARKS
EVANSVILLE     MOSUNNY   38  22  52 NE12      30.43R
HUNTINGBURG *+ MOSUNNY   36  23  59 NE10      30.42R

$$

INZ062-063-066-070>080-084-089>092-221400-
SOUTH CENTRAL AND SOUTHEAST INDIANA

CITY           SKY/WX    TMP DP  RH WIND       PRES   REMARKS
BLOOMINGTON    SUNNY     32  18  56 NE9       30.43R WCI  24
MADISON *+     SUNNY     32  19  59 NE14G21   30.43R WCI  22
SEYMOUR +      SUNNY     34  21  60 NE14G20   30.43R WCI  24

$$




USA.gov is the U.S. government's official web portal to all federal, state and local government web resources and services.